Flag for Canada Weather past 2 weeks in Labrador City, Newfoundland and Labrador, Canada

-2 °F

Light snow. Passing clouds.

Feels Like: -14 °F
Forecast: 11 / 22 °F
Wind: 6 mph from South

Location: Wabush Lake

Current Time: Nov 30, 2015 at 8:30:20 PM

Latest Report: Nov 30, 2015 at 7:00 PM

Visibility: 15 mi

Pressure: 30.05 "Hg (27.87 "Hg at 558m altitude)

Humidity: 84%

Dew point: -6 °F

Location of Labrador CityLocation

Historic Weather in Labrador City — Graph


Labrador City temperature yesterday

Maximum temperature yesterday: 7 °F (at 12:03 AM)
Minimum temperature yesterday: -15 °F (at 11:00 PM)
Average temperature yesterday: -2 °F

Past Weeks' High & Low Weather Summary

High36 °F (Nov 20, 10:00 AM)100% (Nov 16, 2:56 AM)30.66 "Hg (Nov 16, 2:56 AM)
Low-20 °F (Nov 28, 6:00 AM)59% (Nov 29, 1:00 PM)29.68 "Hg (Nov 22, 8:00 PM)
Average16 °F85%30.16 "Hg
* Reported Nov 15 6:00 PM — Nov 30 6:00 PM, Labrador City, Weather by CustomWeather, © 2015

Note: Actual official high and low records may vary slightly from our data, if they occured in-between our weather recording intervals... More about our weather records


Labrador City weather history for previous 24 hours

Time TempWeatherWind HumidityBarometerVisibility
6:00 PM
Mon, Nov 30
-2 °FLight snow. Mostly cloudy.7 mph84%30.05 "Hg8 mi
5:00 PM-2 °FLight snow. Partly sunny.7 mph84%30.07 "Hg15 mi
4:00 PM-2 °FLight snow. Scattered clouds.7 mph77%30.09 "Hg15 mi
3:00 PM1 °FLight snow. Broken clouds.12 mph78%30.10 "Hg15 mi
2:00 PM0 °FLight snow. Partly sunny.12 mph78%30.16 "Hg15 mi
1:00 PM-2 °FSnow flurries. Mostly cloudy.12 mph71%30.21 "Hg15 mi
12:00 PM-8 °FSnow flurries. Mostly cloudy.12 mph77%30.26 "Hg15 mi
11:00 AM-13 °FSnow flurries. Partly sunny.7 mph76%30.31 "Hg15 mi
10:00 AM-15 °FSnow flurries. Partly sunny.6 mph76%30.36 "Hg15 mi
9:00 AM-20 °FSnow flurries. Passing clouds.7 mph75%30.40 "Hg15 mi
8:00 AM-20 °FPassing clouds.7 mph75%30.40 "Hg10 mi
7:00 AM-17 °FSnow flurries. Passing clouds.5 mph69%30.42 "Hg12 mi
6:54 AM-17 °FSnow flurries. Passing clouds.5 mph76%30.42 "Hg12 mi
6:00 AM-17 °FPassing clouds.5 mph76%30.42 "Hg15 mi
5:00 AM-17 °FPassing clouds.7 mph83%30.45 "Hg9 mi
4:00 AM-17 °FLight snow. Clear.9 mph76%30.44 "Hg9 mi
3:00 AM-15 °FClear.10 mph76%30.44 "Hg9 mi
2:00 AM-15 °FClear.9 mph76%30.42 "Hg9 mi
1:00 AM-15 °FClear.10 mph76%30.42 "Hg9 mi
12:00 AM-15 °FPassing clouds.10 mph76%30.42 "Hg9 mi
11:00 PM
Sun, Nov 29
-15 °FPassing clouds.12 mph76%30.43 "Hg9 mi
10:00 PM-13 °FLight snow. Passing clouds.8 mph76%30.41 "Hg10 mi
9:00 PM-13 °FPassing clouds.9 mph76%30.40 "Hg15 mi
8:00 PM-11 °FClear.10 mph70%30.39 "Hg15 mi
Weather by CustomWeather, © 2015

See weather overviewHow to use our weather pages